Back to catalog

NIMBUS 7

AliveWeatherSSO
NORAD 11080·PAYLOAD·🇺🇸 United States

Launched Oct 24, 1978 from Vandenberg Space Force Base

Loading…

Next Passes (next 24 hours)

TLE

FreshSource: Space-Track

Epoch: Sep 14, 2026, 09:55 UTC

1 11080U 78098A   26257.41345484 -.00000025  00000-0  18613-4 0  9998
2 11080  99.4536 142.2883 0009473  38.9765 321.2071 13.84523185419041

Track NIMBUS 7 in real time with AllMySat

Download on the App Store